KI4KAO Weather Reports


time (UTC)temp
F
wind
direction
speed
knots
gust
knots
rain 1hr
in
rain 24hr
in
rain mn
in
humidity
%
barometer
mb
20260906101030 69 0.0 1.7 0.00 0.00 0.00 98 1016.3
20260906100030 69 226 0.0 1.7 0.00 0.00 0.00 99 1016.5
20260906095029 70 290 0.0 1.7 0.00 0.00 0.00 98 1016.5
20260906094030 70 179 0.0 1.7 0.00 0.00 0.00 98 1016.6
20260906093030 69 187 0.9 1.7 0.00 0.00 0.00 99 1016.4
20260906092050 69 0.0 0.0 0.00 0.00 0.00 98 1016.3
20260906091030 69 172 0.0 0.9 0.00 0.00 0.00 99 1016.2
20260906090530 69 1 0.0 0.9 0.00 0.00 0.00 98 1016.3
20260906085029 69 0.0 0.9 0.00 0.00 0.00 98 1016.2
20260906084050 69 352 0.0 0.9 0.00 0.00 0.00 98 1016.3
20260906083029 69 0.0 0.0 0.00 0.00 0.00 98 1016.4
20260906082028 69 153 0.0 1.7 0.00 0.00 0.00 98 1016.3
20260906081029 69 176 0.0 1.7 0.00 0.00 0.00 98 1016.3
20260906080028 69 0.0 0.0 0.00 0.00 0.00 98 1016.2
20260906075028 69 0.0 0.9 0.00 0.00 0.00 98 1016.2
20260906074028 69 0.0 1.7 0.00 0.00 0.00 98 1016.0
20260906073028 69 0.0 0.9 0.00 0.00 0.00 98 1016.3
20260906072049 69 0.0 0.9 0.00 0.00 0.00 98 1016.5
20260906071028 69 11 0.0 0.9 0.00 0.00 0.00 98 1016.5
20260906070028 69 0.0 0.0 0.00 0.00 0.00 98 1016.5
20260906065049 70 0.0 0.9 0.00 0.00 0.00 98 1016.3
20260906064034 69 0.0 1.7 0.00 0.00 0.00 98 1016.5
20260906063029 69 171 0.0 1.7 0.00 0.00 0.00 98 1016.4
20260906062029 69 0.0 0.9 0.00 0.00 0.00 97 1016.5
20260906061029 69 316 0.0 1.7 0.00 0.00 0.00 97 1016.7
20260906060028 69 313 0.0 0.9 0.00 0.00 0.00 97 1016.9
20260906055029 69 6 0.0 0.9 0.00 0.00 0.00 97 1016.7
20260906054049 69 0.0 0.9 0.00 0.00 0.00 97 1017.0
20260906053029 69 0.0 0.0 0.00 0.00 0.00 97 1016.8
20260906052029 69 0.0 0.9 0.00 0.00 0.00 97 1016.9
20260906051029 69 0.0 0.9 0.00 0.00 0.00 97 1017.1
20260906050049 69 165 0.9 1.7 0.00 0.00 0.00 97 1017.0
20260906045029 69 0.0 0.0 0.00 0.00 0.00 97 1016.8
20260906044029 69 0.0 0.9 0.00 0.00 0.00 97 1016.8
20260906043029 69 0.0 0.0 0.00 0.00 0.00 97 1016.7
20260906042128 69 0.0 0.0 0.00 0.00 0.00 96 1016.8
20260906041028 69 0.0 0.0 0.00 0.00 0.00 96 1017.0
20260906040029 70 0.0 0.0 0.00 0.00 0.00 96 1016.9
20260906035028 70 0.0 0.0 0.00 0.00 0.00 96 1016.8
20260906034028 70 0.0 0.9 0.00 0.00 0.00 97 1016.9
20260906033029 70 0.0 0.9 0.00 0.00 0.00 96 1017.0
20260906032029 70 0.0 0.9 0.00 0.00 0.00 96 1017.0
20260906031029 70 0.0 0.9 0.00 0.00 0.00 96 1016.9
20260906030029 70 0.0 0.9 0.00 0.00 0.00 96 1017.1
20260906025029 70 0.0 0.9 0.00 0.00 0.00 96 1017.1
20260906024029 70 0.0 0.0 0.00 0.00 0.00 96 1017.3
20260906023109 71 0.0 0.0 0.00 0.00 0.00 96 1017.1
20260906022028 71 0.0 0.0 0.00 0.00 0.00 95 1017.1
20260906021029 71 0.0 0.9 0.00 0.00 0.00 95 1017.3
20260906020028 71 0.0 0.0 0.00 0.00 0.00 95 1017.1
20260906015028 71 0.0 0.0 0.00 0.00 0.00 95 1017.0
20260906014028 71 0.0 0.0 0.00 0.00 0.00 95 1016.9
20260906013028 72 0.0 0.0 0.00 0.00 0.00 94 1016.7
20260906012109 72 0.0 0.0 0.00 0.00 0.00 94 1016.7
20260906011029 72 0.0 0.0 0.00 0.00 0.00 94 1016.5
20260906010029 72 0.0 0.0 0.00 0.00 0.00 93 1016.6
20260906005029 72 0.0 0.0 0.00 0.00 0.00 93 1016.6
20260906004029 72 0.0 0.9 0.00 0.00 0.00 92 1016.3
20260906003028 72 0.0 0.9 0.00 0.00 0.00 93 1016.2
20260906002049 73 0.0 0.9 0.00 0.00 0.00 91 1015.9
20260906001028 73 0.0 0.0 0.00 0.00 0.00 90 1016.0
20260906000049 74 0.0 0.0 0.00 0.00 0.00 90 1016.5
20260905235030 74 0.0 0.0 0.00 0.00 0.00 89 1016.4
20260905234029 74 0.0 0.9 0.00 0.00 0.00 89 1016.3
20260905233050 74 0.0 0.0 0.00 0.00 0.00 88 1016.4
20260905232029 74 0.0 0.0 0.00 0.00 0.00 88 1016.3
20260905231028 74 0.0 0.0 0.00 0.00 0.00 89 1016.2
20260905230029 75 0.0 0.0 0.00 0.00 0.00 88 1016.3
20260905225029 75 0.0 0.0 0.00 0.00 0.00 88 1016.2
20260905224029 75 0.0 0.0 0.00 0.00 0.00 86 1016.2
20260905223029 75 0.0 0.0 0.00 0.00 0.00 86 1016.3
20260905222029 75 0.0 0.0 0.00 0.00 0.00 86 1016.2
20260905221028 76 0.0 0.0 0.00 0.00 0.00 84 1016.2
20260905220029 76 0.0 0.0 0.00 0.00 0.00 83 1016.3
20260905215049 76 0.0 0.9 0.00 0.00 0.00 82 1016.3
20260905214048 76 0.0 0.0 0.00 0.00 0.00 83 1016.4
20260905213028 76 0.0 0.9 0.00 0.00 0.00 82 1016.2
20260905212028 77 0.0 0.0 0.00 0.00 0.00 81 1016.3
20260905211029 78 0.0 0.0 0.00 0.00 0.00 80 1015.9
20260905210029 79 0.0 0.0 0.00 0.00 0.00 78 1015.9
20260905205029 80 0.0 0.0 0.00 0.00 0.00 76 1016.0
20260905204029 80 0.0 0.0 0.00 0.00 0.00 76 1015.8
20260905203034 81 0.0 0.0 0.00 0.00 0.00 75 1016.0
20260905202028 81 0.0 0.0 0.00 0.00 0.00 76 1016.1
20260905201029 82 211 0.0 0.9 0.00 0.00 0.00 71 1016.2
20260905200049 83 0.0 0.9 0.00 0.00 0.00 70 1016.2
20260905195028 82 0.0 0.9 0.00 0.00 0.00 74 1016.3
20260905194049 83 0.0 0.0 0.00 0.00 0.00 73 1016.3
20260905193028 84 0.0 0.9 0.00 0.00 0.00 72 1016.5
20260905192029 84 238 0.9 2.6 0.00 0.00 0.00 73 1016.8
20260905191029 85 251 1.7 3.5 0.00 0.00 0.00 71 1016.9
20260905190029 84 260 1.7 2.6 0.00 0.00 0.00 73 1017.1
20260905185029 84 260 1.7 2.6 0.00 0.00 0.00 71 1017.3
20260905184028 83 252 1.7 2.6 0.00 0.00 0.00 73 1017.4
20260905183029 83 257 1.7 2.6 0.00 0.00 0.00 75 1017.6
20260905182029 83 266 1.7 3.5 0.00 0.00 0.00 73 1017.8
20260905181028 83 249 1.7 2.6 0.00 0.00 0.00 77 1017.9
20260905180028 82 199 0.9 3.5 0.00 0.00 0.00 80 1018.0
20260905175029 82 193 0.9 4.3 0.00 0.00 0.00 76 1018.0
20260905174109 81 174 1.7 3.5 0.00 0.00 0.00 78 1018.1
20260905173028 80 161 0.9 3.5 0.00 0.00 0.00 81 1018.2
20260905172029 77 216 0.9 3.5 0.00 0.00 0.00 87 1018.2
20260905171048 77 288 0.9 2.6 0.00 0.00 0.00 87 1018.4
20260905170029 76 78 0.9 1.7 0.00 0.00 0.00 93 1018.6
20260905165028 75 12 0.9 2.6 0.00 0.00 0.00 94 1018.7
20260905164029 75 0.0 0.9 0.00 0.00 0.00 94 1019.1
20260905163028 74 0.0 1.7 0.00 0.00 0.00 95 1019.4
20260905162028 73 150 0.9 2.6 0.00 0.00 0.00 97 1019.7
20260905161029 73 0.0 0.9 0.00 0.00 0.00 97 1020.1
20260905160029 72 0.0 0.9 0.00 0.00 0.00 97 1020.1
20260905155029 72 0.0 1.7 0.00 0.00 0.00 98 1020.3
20260905154029 72 300 0.0 1.7 0.00 0.00 0.00 97 1020.0
20260905153029 72 0.0 1.7 0.00 0.00 0.00 98 1020.6
20260905152029 72 148 0.9 1.7 0.00 0.00 0.00 98 1020.8
20260905151029 72 230 0.0 1.7 0.00 0.00 0.00 98 1020.6
20260905150029 72 0.0 0.0 0.00 0.00 0.00 97 1020.5
20260905145342 72 190 0.9 1.7 0.00 0.00 0.00 97 1020.4
20260905144029 71 0.0 1.7 0.00 0.00 0.00 97 1020.6
20260905143029 72 118 0.9 2.6 0.00 0.00 0.00 96 1020.4
20260905142028 74 92 0.9 7.8 0.00 0.00 0.00 89 1020.0
20260905141049 74 318 2.6 4.3 0.00 0.00 0.00 91 1019.6
20260905140029 74 314 0.9 3.5 0.00 0.00 0.00 91 1018.7
20260905135029 73 0.0 0.9 0.00 0.00 0.00 92 1018.7
20260905134029 72 0.0 0.0 0.00 0.00 0.00 93 1019.1
20260905133028 70 0.0 0.9 0.00 0.00 0.00 96 1019.1
20260905132029 69 0.0 1.7 0.00 0.00 0.00 97 1019.2
20260905131029 69 331 0.0 0.9 0.00 0.00 0.00 97 1019.2
20260905130028 68 0.0 0.9 0.00 0.00 0.00 97 1019.3
20260905125029 68 0.0 0.0 0.00 0.00 0.00 97 1019.4
20260905124028 67 0.0 0.9 0.00 0.00 0.00 97 1019.3
20260905123033 66 0.0 0.0 0.00 0.00 0.00 98 1019.4
20260905122029 66 0.0 0.0 0.00 0.00 0.00 98 1019.2
20260905121028 66 0.0 0.9 0.00 0.00 0.00 98 1019.2
20260905120029 66 0.0 0.9 0.00 0.00 0.00 98 1019.1
20260905115028 66 0.0 0.0 0.00 0.00 0.00 98 1018.9
20260905114029 66 0.0 0.0 0.00 0.00 0.00 98 1019.0
20260905113029 66 0.0 1.7 0.00 0.00 0.00 98 1018.8
20260905112029 66 0.0 1.7 0.00 0.00 0.00 98 1018.7
20260905111029 66 0.0 1.7 0.00 0.00 0.00 98 1018.4
20260905110029 66 0.0 0.9 0.00 0.00 0.00 98 1018.4
20260905105029 66 0.0 0.0 0.00 0.00 0.00 98 1018.3
20260905104029 66 0.0 0.9 0.00 0.00 0.00 97 1018.4
20260905103028 66 0.0 0.9 0.00 0.00 0.00 97 1018.5
20260905102028 66 0.0 0.0 0.00 0.00 0.00 97 1018.5